Temp
-6 -7 -7 -7 -7 -7 -7 -8 -8 -8 -8 -8 -8 -9 -9 -9 -9 -8 -8 -8 -8 -8 -8 -8 -8 -8 -8 -8 -8 -8 -8 -8 -8 -8 -8 -8 -8 -8 -8 -8 -8 -8 -8 -8 -8 -8 -8 -7 -7 -7 -7 -7 -7 -6 -6 -6 -6 -6 -5 -5 -5 -5 -4 -4 -3 -3 -3 -3 -3
-7 -7 -7 -7 -7 -7 -8 -8 -8 -8 -8 -9 -9 -9 -9 -9 -9 -9 -8 -8 -8 -8 -8 -8 -8 -8 -8 -8 -8 -8 -8 -8 -8 -8 -8 -8 -8 -8 -8 -8 -8 -8 -8 -8 -8 -8 -8 -7 -7 -7 -7 -7 -7 -6 -6 -6 -6 -6 -6 -5 -5 -5 -4 -4 -4 -4 -4 -4 -4
-7 -7 -7 -7 -7 -8 -8 -8 -8 -8 -8 -9 -9 -9 -9 -9 -9 -9 -9 -9 -9 -9 -9 -9 -9 -9 -8 -8 -8 -8 -8 -8 -8 -8 -8 -8 -8 -8 -8 -8 -8 -8 -8 -8 -8 -8 -8 -7 -7 -7 -7 -7 -7 -7 -6 -6 -6 -6 -6 -5 -5 -5 -4 -4 -4 -4 -4 -4 -4
-7 -7 -7 -7 -8 -8 -8 -8 -8 -8 -9 -9 -9 -9 -9 -9 -9 -9 -9 -9 -9 -9 -9 -9 -9 -9 -9 -9 -9 -9 -8 -8 -8 -8 -8 -8 -8 -8 -8 -8 -8 -8 -8 -8 -8 -8 -8 -7 -7 -7 -7 -7 -7 -7 -6 -6 -6 -6 -6 -5 -5 -5 -5 -4 -4 -4 -4 -4 -4
-7 -7 -7 -8 -8 -8 -8 -8 -8 -8 -9 -9 -9 -9 -9 -9 -9 -9 -9 -9 -9 -9 -9 -9 -9 -9 -9 -9 -9 -9 -8 -8 -8 -8 -8 -8 -8 -8 -8 -8 -8 -8 -8 -8 -8 -8 -7 -7 -7 -7 -7 -7 -7 -6 -6 -6 -6 -6 -6 -6 -5 -5 -5 -5 -5 -4 -4 -4 -4
-8 -8 -8 -8 -8 -8 -8 -8 -8 -9 -9 -9 -9 -9 -9 -9 -9 -9 -9 -9 -9 -9 -9 -9 -9 -9 -9 -9 -9 -9 -8 -8 -8 -8 -9 -9 -9 -8 -8 -8 -8 -8 -8 -8 -8 -7 -7 -7 -7 -7 -7 -7 -7 -6 -6 -6 -6 -6 -6 -6 -6 -5 -5 -5 -5 -5 -4 -4 -4
-8 -8 -8 -8 -8 -8 -8 -8 -9 -9 -9 -9 -9 -9 -9 -9 -9 -9 -9 -9 -9 -9 -9 -9 -9 -9 -9 -9 -9 -8 -8 -8 -8 -9 -9 -9 -9 -9 -8 -8 -8 -8 -8 -8 -8 -7 -7 -7 -7 -7 -7 -7 -6 -6 -6 -6 -6 -6 -6 -6 -6 -6 -5 -5 -5 -5 -5 -5 -5
-8 -8 -8 -8 -8 -8 -9 -9 -9 -9 -9 -9 -9 -9 -9 -9 -9 -9 -9 -10 -10 -9 -9 -9 -9 -9 -9 -9 -9 -9 -8 -8 -9 -9 -9 -9 -9 -9 -9 -8 -8 -8 -8 -8 -8 -8 -7 -7 -7 -7 -7 -7 -6 -6 -6 -6 -6 -6 -6 -6 -6 -6 -5 -5 -5 -5 -5 -5 -5
-8 -9 -9 -9 -9 -9 -9 -9 -9 -9 -9 -9 -9 -9 -9 -10 -10 -10 -10 -10 -10 -9 -9 -9 -9 -9 -9 -9 -9 -9 -9 -9 -9 -9 -9 -9 -9 -9 -9 -8 -8 -8 -8 -8 -8 -8 -7 -7 -7 -7 -7 -7 -6 -6 -6 -6 -6 -6 -6 -6 -6 -5 -5 -5 -5 -5 -5 -5 -5
-9 -9 -9 -9 -9 -9 -9 -9 -9 -9 -9 -9 -10 -10 -10 -10 -10 -10 -10 -10 -10 -9 -9 -9 -9 -9 -9 -9 -9 -9 -9 -9 -9 -9 -9 -9 -9 -9 -9 -8 -8 -8 -8 -8 -8 -8 -7 -7 -7 -7 -7 -7 -7 -7 -6 -6 -6 -6 -6 -6 -5 -5 -5 -5 -5 -5 -5 -5 -5
-9 -9 -9 -9 -9 -9 -9 -9 -9 -10 -10 -10 -10 -10 -10 -10 -10 -10 -10 -10 -10 -9 -9 -9 -9 -9 -9 -9 -9 -9 -9 -9 -9 -9 -9 -9 -9 -8 -8 -8 -8 -8 -8 -8 -8 -8 -7 -7 -7 -7 -7 -7 -7 -7 -6 -6 -6 -6 -6 -6 -6 -5 -5 -5 -5 -5 -5 -5 -5
-9 -9 -9 -9 -9 -9 -9 -10 -10 -10 -10 -10 -10 -10 -10 -10 -10 -10 -10 -10 -10 -9 -9 -9 -9 -9 -9 -9 -9 -9 -9 -9 -9 -9 -9 -9 -8 -8 -8 -8 -8 -8 -8 -8 -8 -8 -8 -7 -7 -7 -7 -7 -7 -7 -7 -6 -6 -6 -6 -6 -6 -5 -5 -5 -5 -5 -5 -5 -4
-10 -10 -9 -9 -9 -10 -10 -10 -10 -10 -10 -10 -10 -10 -10 -10 -10 -10 -10 -10 -10 -10 -9 -9 -9 -9 -9 -9 -9 -9 -9 -9 -9 -9 -9 -9 -8 -8 -8 -8 -8 -8 -8 -8 -8 -8 -8 -8 -7 -7 -7 -7 -7 -7 -7 -7 -6 -6 -6 -6 -5 -5 -5 -5 -5 -5 -4 -4 -4
-10 -9 -9 -10 -10 -10 -10 -10 -10 -10 -10 -10 -10 -10 -10 -10 -10 -10 -10 -10 -10 -10 -9 -9 -9 -9 -9 -9 -9 -9 -9 -9 -9 -9 -9 -9 -8 -8 -8 -8 -8 -8 -8 -8 -8 -8 -8 -8 -8 -7 -7 -7 -7 -7 -7 -7 -6 -6 -6 -5 -5 -5 -4 -4 -4 -4 -4 -4 -3
-9 -9 -9 -10 -10 -10 -10 -10 -10 -10 -10 -10 -10 -10 -10 -10 -10 -10 -10 -10 -10 -10 -9 -9 -9 -9 -9 -9 -9 -9 -9 -9 -9 -9 -9 -9 -9 -8 -8 -8 -8 -8 -8 -8 -8 -8 -8 -8 -8 -7 -7 -7 -7 -7 -7 -6 -6 -5 -5 -4 -4 -4 -4 -4 -4 -4 -3 -3 -3
-9 -9 -9 -10 -10 -10 -10 -10 -10 -10 -10 -10 -10 -10 -10 -10 -10 -10 -10 -10 -10 -9 -9 -9 -9 -9 -9 -9 -9 -9 -9 -9 -9 -9 -9 -9 -9 -9 -9 -9 -8 -8 -8 -8 -8 -8 -8 -8 -8 -7 -7 -7 -7 -7 -6 -6 -5 -4 -4 -3 -3 -3 -4 -3 -3 -3 -3 -3 -3
-9 -9 -10 -10 -10 -10 -10 -10 -10 -10 -10 -10 -10 -10 -10 -10 -10 -10 -9 -9 -9 -9 -9 -9 -9 -9 -9 -9 -9 -9 -9 -9 -9 -9 -9 -9 -9 -9 -9 -9 -9 -9 -8 -8 -8 -8 -8 -8 -7 -7 -7 -7 -7 -6 -6 -5 -4 -3 -3 -3 -3 -3 -3 -3 -3 -3 -3 -3 -3
-9 -10 -10 -10 -10 -10 -10 -10 -10 -10 -10 -10 -10 -10 -10 -10 -9 -9 -9 -9 -9 -9 -9 -9 -9 -9 -10 -10 -10 -9 -9 -9 -9 -9 -9 -9 -9 -9 -9 -9 -9 -9 -9 -8 -8 -8 -8 -8 -7 -7 -7 -7 -7 -6 -5 -4 -4 -3 -3 -3 -3 -3 -3 -3 -3 -3 -3 -3 -3
-9 -10 -10 -10 -10 -10 -10 -10 -10 -10 -10 -10 -10 -9 -9 -9 -9 -9 -9 -9 -9 -9 -9 -9 -9 -9 -10 -10 -9 -9 -9 -9 -9 -9 -9 -9 -9 -9 -9 -9 -9 -9 -9 -8 -8 -8 -8 -7 -7 -7 -7 -7 -6 -5 -4 -4 -4 -3 -3 -3 -3 -3 -3 -3 -3 -3 -3 -3 -3
-9 -10 -10 -10 -10 -10 -9 -9 -9 -9 -9 -9 -9 -9 -9 -9 -9 -9 -9 -9 -9 -9 -9 -9 -9 -9 -9 -9 -9 -9 -9 -9 -9 -9 -9 -9 -9 -9 -9 -9 -9 -9 -9 -8 -8 -8 -8 -7 -7 -7 -7 -6 -5 -5 -4 -4 -4 -3 -3 -3 -3 -3 -3 -3 -3 -3 -3 -3 -3
-9 -9 -9 -9 -9 -9 -9 -9 -9 -9 -9 -9 -9 -9 -9 -9 -9 -9 -9 -9 -9 -9 -9 -9 -9 -9 -9 -9 -9 -9 -9 -9 -9 -9 -9 -9 -9 -9 -9 -9 -9 -9 -9 -9 -8 -8 -8 -7 -7 -6 -6 -5 -5 -4 -4 -4 -4 -4 -3 -3 -3 -3 -3 -3 -3 -3 -3 -3 -3
-9 -9 -9 -9 -9 -9 -9 -9 -9 -9 -9 -9 -9 -9 -9 -9 -9 -9 -9 -9 -9 -9 -9 -9 -9 -9 -9 -9 -9 -9 -9 -9 -9 -9 -9 -9 -9 -9 -9 -9 -9 -9 -9 -9 -8 -8 -8 -7 -6 -6 -5 -5 -4 -4 -4 -4 -4 -4 -3 -3 -3 -3 -3 -3 -3 -3 -3 -3 -3
-9 -9 -9 -9 -9 -9 -9 -9 -9 -9 -9 -9 -9 -9 -9 -9 -9 -9 -9 -9 -9 -9 -9 -9 -9 -9 -9 -9 -9 -9 -9 -9 -9 -9 -9 -9 -9 -9 -9 -9 -9 -9 -9 -9 -9 -8 -7 -7 -6 -5 -5 -4 -4 -4 -4 -4 -4 -4 -4 -3 -3 -3 -3 -3 -3 -3 -3 -3 -3
-9 -9 -9 -9 -9 -9 -9 -9 -9 -9 -9 -9 -9 -9 -9 -9 -9 -9 -9 -9 -9 -9 -9 -9 -9 -9 -9 -9 -9 -9 -9 -9 -9 -9 -9 -9 -9 -9 -9 -9 -9 -9 -9 -9 -8 -8 -7 -6 -5 -5 -4 -4 -4 -4 -4 -4 -4 -4 -4 -4 -4 -4 -4 -4 -4 -3 -3 -3 -3
-9 -9 -9 -9 -9 -9 -9 -9 -9 -9 -9 -9 -9 -9 -9 -9 -9 -9 -9 -9 -9 -9 -9 -9 -9 -9 -9 -9 -9 -9 -9 -9 -9 -9 -9 -9 -9 -9 -9 -9 -9 -9 -9 -9 -8 -7 -6 -5 -5 -4 -4 -3 -4 -4 -4 -4 -4 -4 -4 -4 -4 -4 -4 -4 -4 -3 -3 -3 -3
-9 -9 -9 -9 -9 -9 -9 -9 -9 -9 -9 -9 -9 -9 -9 -9 -9 -9 -9 -9 -9 -9 -9 -9 -9 -9 -9 -9 -9 -9 -9 -9 -9 -9 -9 -9 -9 -9 -9 -9 -9 -9 -9 -8 -8 -6 -5 -4 -4 -4 -4 -3 -4 -4 -4 -4 -4 -4 -4 -4 -4 -4 -4 -4 -4 -3 -3 -3 -3
-9 -9 -10 -10 -10 -10 -9 -9 -9 -9 -9 -9 -9 -9 -9 -9 -9 -9 -9 -9 -9 -9 -9 -9 -9 -9 -9 -9 -9 -9 -9 -9 -9 -9 -9 -9 -9 -9 -9 -9 -9 -9 -9 -8 -7 -6 -5 -4 -4 -4 -4 -4 -4 -4 -4 -4 -5 -4 -4 -4 -4 -4 -4 -4 -4 -3 -3 -3 -3
-10 -10 -10 -10 -10 -10 -10 -9 -9 -9 -9 -9 -9 -9 -9 -9 -9 -9 -9 -9 -9 -9 -9 -9 -9 -8 -9 -9 -9 -9 -9 -9 -9 -9 -9 -9 -9 -9 -9 -9 -9 -9 -8 -8 -7 -6 -5 -4 -4 -4 -3 -4 -5 -5 -5 -5 -5 -5 -5 -5 -5 -5 -5 -4 -4 -3 -3 -3 -3
-10 -10 -10 -10 -10 -10 -10 -9 -9 -9 -9 -9 -9 -9 -9 -9 -9 -9 -9 -9 -9 -9 -9 -8 -8 -8 -9 -9 -9 -9 -9 -9 -9 -9 -9 -9 -9 -9 -9 -8 -8 -8 -8 -7 -6 -6 -5 -4 -4 -4 -4 -4 -5 -5 -5 -5 -5 -5 -5 -5 -5 -5 -5 -4 -4 -4 -4 -3 -3
-10 -10 -10 -10 -10 -9 -9 -9 -9 -9 -9 -9 -9 -9 -9 -9 -9 -9 -9 -9 -9 -8 -8 -8 -8 -8 -8 -9 -9 -9 -9 -9 -9 -9 -9 -9 -9 -9 -8 -8 -8 -8 -8 -7 -6 -6 -5 -4 -4 -4 -4 -5 -5 -5 -5 -5 -5 -5 -5 -5 -5 -5 -4 -4 -4 -4 -4 -3 -3
-10 -10 -10 -10 -9 -9 -9 -9 -9 -9 -9 -9 -9 -9 -9 -9 -9 -9 -9 -8 -8 -8 -8 -8 -8 -8 -8 -8 -8 -8 -9 -9 -9 -9 -9 -9 -9 -9 -8 -8 -8 -8 -8 -7 -6 -5 -5 -4 -4 -4 -4 -5 -5 -5 -6 -6 -6 -6 -6 -6 -6 -5 -5 -4 -4 -4 -4 -3 -3
-10 -10 -9 -9 -9 -9 -9 -9 -9 -9 -9 -9 -9 -9 -9 -9 -8 -8 -8 -8 -8 -8 -8 -8 -8 -8 -8 -8 -8 -8 -8 -8 -8 -8 -8 -8 -8 -8 -8 -8 -8 -8 -7 -7 -6 -5 -5 -4 -4 -4 -4 -5 -5 -6 -6 -6 -6 -6 -6 -6 -6 -6 -5 -5 -4 -4 -4 -3 -3
-10 -9 -9 -9 -9 -9 -9 -9 -9 -9 -9 -9 -9 -9 -9 -8 -8 -8 -8 -8 -8 -8 -8 -8 -8 -8 -8 -8 -8 -8 -8 -8 -8 -8 -8 -8 -8 -8 -8 -8 -8 -8 -7 -6 -6 -5 -5 -4 -4 -4 -5 -5 -6 -6 -6 -6 -6 -6 -6 -6 -6 -6 -6 -5 -5 -4 -4 -4 -3
-9 -9 -9 -9 -9 -9 -9 -9 -9 -9 -9 -9 -9 -8 -8 -8 -8 -8 -8 -8 -8 -8 -8 -8 -8 -8 -8 -8 -8 -8 -8 -8 -8 -8 -8 -8 -8 -8 -8 -8 -8 -8 -7 -7 -6 -5 -5 -5 -5 -5 -5 -6 -6 -6 -6 -6 -6 -6 -6 -6 -6 -6 -6 -6 -6 -5 -4 -4 -4
-9 -9 -9 -9 -9 -9 -9 -9 -9 -9 -9 -8 -8 -8 -8 -8 -8 -8 -8 -8 -8 -8 -8 -8 -8 -8 -8 -8 -8 -8 -8 -8 -8 -8 -8 -8 -8 -8 -8 -8 -7 -7 -7 -7 -6 -5 -5 -5 -5 -5 -6 -6 -6 -6 -6 -6 -6 -6 -6 -6 -6 -6 -6 -6 -6 -6 -5 -4 -4
-9 -9 -9 -9 -9 -9 -9 -9 -9 -9 -8 -8 -8 -8 -8 -8 -8 -8 -8 -8 -8 -8 -8 -8 -8 -8 -8 -8 -8 -8 -8 -8 -8 -8 -8 -8 -8 -8 -7 -7 -7 -7 -7 -7 -5 -5 -5 -5 -5 -6 -6 -6 -6 -6 -6 -6 -6 -6 -6 -6 -6 -6 -6 -6 -6 -6 -5 -4 -4
-9 -9 -9 -9 -9 -9 -9 -9 -9 -9 -9 -8 -8 -8 -8 -8 -8 -8 -8 -8 -8 -8 -8 -8 -8 -8 -8 -8 -8 -8 -8 -8 -8 -8 -8 -8 -8 -7 -7 -7 -7 -7 -7 -6 -5 -5 -5 -5 -5 -6 -6 -6 -6 -6 -6 -6 -6 -6 -6 -6 -6 -6 -6 -6 -6 -6 -5 -5 -4
-9 -9 -9 -9 -9 -9 -9 -9 -9 -8 -8 -8 -8 -8 -8 -8 -8 -8 -8 -8 -8 -8 -8 -8 -8 -8 -8 -8 -8 -8 -8 -8 -8 -8 -8 -8 -7 -7 -7 -7 -7 -7 -7 -6 -5 -5 -5 -5 -6 -6 -6 -6 -6 -6 -7 -7 -7 -7 -7 -6 -6 -6 -6 -6 -6 -6 -6 -5 -5
-9 -9 -9 -9 -9 -9 -8 -8 -8 -8 -8 -8 -8 -8 -8 -8 -8 -8 -8 -8 -8 -8 -8 -8 -8 -8 -8 -8 -8 -8 -8 -8 -8 -8 -8 -8 -7 -7 -7 -7 -7 -7 -6 -6 -5 -5 -5 -5 -6 -6 -6 -6 -6 -7 -7 -7 -7 -7 -7 -7 -7 -7 -7 -6 -6 -6 -6 -6 -5
-9 -9 -9 -9 -9 -8 -8 -8 -8 -8 -8 -8 -8 -8 -8 -8 -8 -8 -8 -8 -8 -8 -8 -8 -8 -8 -8 -8 -8 -8 -8 -8 -8 -8 -8 -8 -8 -7 -7 -7 -7 -7 -6 -6 -5 -5 -5 -5 -5 -6 -6 -7 -7 -7 -7 -7 -7 -7 -7 -7 -7 -7 -7 -7 -7 -7 -6 -6 -6
-8 -8 -8 -8 -8 -8 -8 -8 -8 -8 -8 -8 -8 -8 -8 -8 -8 -8 -8 -8 -7 -8 -8 -8 -8 -8 -8 -8 -8 -8 -8 -8 -8 -8 -8 -8 -8 -7 -7 -7 -7 -7 -6 -6 -5 -5 -5 -5 -5 -5 -6 -7 -7 -7 -7 -7 -7 -7 -7 -7 -7 -7 -7 -7 -7 -7 -7 -6 -6
Height
890 888 888 887 886 884 883 882 881 879 878 877 875 873 872 870 868 867 865 864 863 861 859 858 856 854 853 851 850 848 847 845 844 843 841 840 838 837 835 833 832 830 829 827 826 824 823 821 820 818 817 815 813 812 811 810 808 807 806 804 803 801 800 798 797 796 795 794 793
889 888 887 886 885 884 883 881 880 879 878 876 874 873 871 870 868 867 865 864 862 861 859 857 856 854 852 851 849 848 846 845 843 842 840 839 837 836 834 833 831 830 828 827 825 823 822 820 819 817 816 814 813 811 810 808 808 806 805 803 802 800 799 797 796 795 793 793 791
889 888 887 885 884 883 882 880 879 878 876 875 874 873 871 870 868 867 865 863 862 860 859 857 855 853 852 850 849 847 846 844 843 841 839 838 836 835 833 832 830 829 827 826 824 823 821 820 818 816 814 813 811 810 808 807 806 805 803 802 800 799 798 796 795 793 792 791 790
888 887 886 885 884 883 881 880 878 877 876 874 873 872 870 869 868 866 864 863 861 859 858 856 854 853 851 850 848 847 845 844 842 841 839 837 836 834 833 831 829 828 826 825 823 822 820 819 817 815 813 812 810 808 807 806 804 803 802 801 799 798 797 795 794 793 791 790 788
888 887 886 884 883 882 881 880 878 877 875 874 873 871 870 868 867 865 864 862 860 859 857 856 854 853 851 849 848 846 844 843 842 840 838 837 835 833 832 830 829 827 825 824 822 821 819 818 816 814 812 810 809 807 806 804 803 802 800 799 798 797 795 794 793 791 790 788 787
887 886 885 884 883 882 880 879 878 876 875 873 872 870 869 868 866 864 863 861 859 858 856 855 853 852 850 848 847 845 844 842 841 839 838 836 834 833 831 829 828 826 825 823 821 820 818 816 814 813 811 809 807 806 804 803 802 800 799 797 796 795 794 792 791 790 788 787 786
887 885 884 883 882 881 879 878 877 875 874 873 871 869 868 867 865 864 862 861 859 857 855 854 853 851 849 848 846 845 843 841 840 838 837 835 833 832 830 829 827 825 824 822 820 818 817 815 813 811 809 808 806 804 803 802 800 799 797 796 794 793 792 791 789 788 787 786 785
886 885 884 883 882 880 879 878 876 874 873 872 870 869 867 866 864 863 861 859 858 856 855 853 852 850 849 848 846 844 843 841 839 838 836 835 833 831 830 828 826 824 823 821 819 818 816 814 812 810 808 807 805 803 801 800 798 797 795 794 792 791 790 789 788 787 786 784 783
885 884 883 882 881 879 878 877 875 874 872 871 869 868 867 865 864 862 860 859 857 856 854 853 851 850 848 847 845 843 842 840 838 837 835 834 832 831 829 827 825 823 822 820 818 816 814 813 811 809 808 806 804 802 800 798 797 795 793 792 790 789 788 787 786 785 784 783 781
884 883 882 881 880 879 878 876 874 873 872 870 868 867 866 865 863 861 860 858 857 855 854 852 851 849 848 846 844 843 841 840 838 836 835 833 832 830 828 826 824 823 821 819 817 815 813 811 809 808 806 804 802 800 798 796 795 793 791 790 788 787 786 784 784 783 782 781 779
884 883 882 881 879 878 877 875 873 872 871 869 868 866 865 864 862 861 859 858 856 855 853 852 850 848 847 845 844 842 841 839 837 836 834 832 831 829 828 826 824 822 820 818 817 814 812 810 808 806 803 802 800 798 796 794 793 791 789 788 786 785 783 782 781 781 780 779 778
883 882 881 880 879 877 876 874 873 871 870 868 867 866 864 863 862 860 858 857 856 854 853 851 850 848 846 844 843 841 840 838 837 835 833 831 830 828 827 825 823 822 820 818 816 814 812 809 807 804 801 799 798 796 794 792 790 788 787 785 784 783 781 780 779 779 778 777 776
883 882 881 879 878 877 875 874 872 871 869 868 867 865 864 862 861 860 858 857 855 853 852 850 849 847 846 844 842 841 839 837 836 834 832 831 829 827 826 824 823 821 819 817 815 813 811 808 806 803 800 797 795 793 792 790 788 786 784 783 781 780 779 778 777 777 776 776 775
883 881 880 879 878 876 875 873 872 870 869 868 866 865 863 862 860 859 858 856 855 853 851 849 848 847 845 843 842 840 838 836 835 833 831 829 828 826 825 823 822 820 818 815 813 812 809 807 804 802 798 796 793 791 789 788 785 783 782 780 779 778 778 777 776 775 775 774 773
882 881 880 878 877 876 874 873 871 870 868 867 866 864 863 862 860 858 857 856 854 852 851 849 847 846 844 843 841 839 837 836 834 832 830 828 827 825 824 822 820 818 816 814 812 810 808 806 803 801 798 795 792 789 787 785 783 781 780 778 778 777 776 775 775 774 774 773 773
882 880 879 878 877 875 874 873 871 870 868 867 866 864 863 861 859 858 857 855 853 852 850 848 847 845 843 842 840 838 836 834 833 831 828 827 825 824 823 821 819 817 815 812 810 808 806 804 802 799 797 794 791 788 785 783 781 779 778 777 777 776 775 774 774 773 773 772 772
881 880 879 877 876 874 873 872 871 870 868 867 865 863 862 860 859 858 856 854 853 851 849 848 846 844 842 841 839 837 835 833 831 829 828 826 824 823 821 819 818 816 813 811 808 806 803 802 799 798 795 793 790 787 783 781 780 778 778 776 775 775 774 773 773 773 772 772 772
881 879 878 877 875 874 873 872 870 869 868 866 864 863 861 860 858 857 855 854 852 850 848 847 845 843 842 840 838 836 835 833 831 829 827 825 824 822 820 818 816 814 812 810 807 805 802 800 798 795 793 791 788 785 783 781 780 778 777 776 775 774 773 773 773 773 772 772 771
880 879 878 876 875 874 873 871 870 868 867 865 864 862 861 859 858 856 855 853 852 850 848 846 844 843 841 839 837 836 834 832 830 828 827 825 823 821 819 817 815 813 811 808 806 803 801 798 796 793 791 788 786 784 782 781 780 778 777 775 774 774 773 773 773 772 772 771 770
880 878 877 876 875 873 872 871 869 868 866 865 863 862 860 859 857 856 854 853 851 849 848 846 844 842 840 838 836 835 833 831 829 828 826 824 822 820 818 816 814 812 809 807 804 802 799 797 794 791 789 787 785 783 782 780 779 777 776 775 774 774 773 773 772 771 770 769 768
880 878 877 876 874 873 872 870 869 867 866 864 863 861 860 858 857 855 854 852 851 849 847 845 843 841 839 837 835 834 832 830 829 827 825 823 821 819 817 815 813 810 808 806 803 800 798 795 793 790 788 786 784 783 781 779 778 777 776 775 774 773 773 772 771 770 769 768 767
880 878 877 876 874 873 872 870 868 867 865 864 863 861 860 858 857 855 854 852 850 848 847 844 843 841 839 837 835 833 831 829 828 826 824 822 820 818 816 814 812 809 807 804 802 799 796 793 791 789 787 785 784 783 781 779 778 776 775 774 774 773 772 771 770 769 768 767 766
880 878 877 876 874 873 871 870 868 867 865 864 862 861 859 858 857 855 853 851 850 848 846 844 842 840 838 836 834 833 831 828 826 824 822 821 818 817 815 813 811 808 806 803 801 798 795 793 790 788 786 784 783 782 780 778 777 776 775 774 773 773 771 770 769 768 767 766 765
879 878 877 875 874 873 871 869 868 866 865 863 862 861 859 858 856 854 853 851 849 847 845 843 841 839 837 836 834 832 830 828 825 823 821 819 817 815 813 812 809 808 805 803 801 798 796 793 790 787 786 784 783 781 779 778 777 776 775 774 773 772 771 769 768 767 766 765 764
879 878 877 875 874 872 871 869 868 866 865 863 862 861 859 858 856 854 852 850 848 846 844 843 841 839 837 835 833 831 829 827 824 822 820 818 816 814 813 811 808 807 804 802 800 798 796 793 789 787 785 783 781 780 778 778 777 776 775 774 773 771 770 768 767 766 765 765 764
879 878 876 875 873 872 871 869 868 866 865 863 862 860 859 857 855 853 852 849 847 845 843 842 840 838 837 835 833 830 828 826 824 822 820 818 816 813 812 810 808 806 804 802 800 798 794 791 788 786 784 782 780 779 778 777 776 776 775 773 772 771 769 768 767 766 766 765 764
879 878 876 875 873 872 871 869 868 866 865 863 862 860 858 857 855 853 851 849 847 845 843 841 840 838 836 834 832 829 828 825 823 821 819 817 815 813 811 809 807 805 803 802 800 797 794 790 787 784 782 781 779 778 778 777 776 775 774 773 772 770 769 768 767 767 767 766 765
879 878 876 875 873 872 870 869 868 866 864 863 862 860 858 856 854 853 851 848 847 845 843 841 839 838 836 833 831 829 827 825 823 821 819 817 815 813 811 809 807 805 803 802 799 797 794 790 787 784 782 780 779 778 778 777 776 775 774 773 772 770 769 768 768 768 767 766 765
879 878 876 874 873 872 870 869 867 866 864 863 861 860 858 856 854 852 850 848 846 844 843 841 839 837 835 833 831 828 826 824 823 820 818 816 814 813 811 808 806 804 803 801 798 796 793 790 787 784 782 781 780 779 778 777 776 775 774 773 772 770 769 768 768 768 768 767 766
879 878 876 874 873 872 870 868 867 866 864 863 861 859 858 856 854 852 850 848 846 844 843 841 839 837 835 833 831 828 826 824 822 820 818 816 814 812 810 808 806 804 802 800 798 795 793 790 787 784 783 782 780 779 778 778 777 776 775 774 772 770 769 769 769 769 768 767 766
879 878 876 874 873 872 870 868 867 866 864 863 861 859 857 855 853 852 850 848 846 844 843 840 838 837 835 833 830 828 826 823 822 820 818 816 814 812 810 808 806 804 802 800 797 795 792 789 786 784 783 782 781 780 779 778 778 777 776 774 773 771 770 771 771 770 769 768 768
879 878 876 874 873 872 870 868 867 865 864 862 861 859 857 855 854 852 850 848 846 844 842 840 838 836 834 832 830 828 825 823 821 819 818 816 813 812 810 808 806 804 802 800 797 795 792 788 785 784 784 783 782 781 780 779 779 778 777 775 773 773 772 772 771 771 770 770 769
879 877 876 874 873 871 870 868 867 865 864 862 861 859 857 855 853 852 850 848 846 844 842 840 838 837 835 833 830 828 825 823 821 819 817 815 813 812 810 808 806 804 803 800 798 795 791 788 786 786 785 784 783 782 781 781 780 778 778 776 775 774 773 773 772 772 772 771 770
879 877 876 874 873 871 870 868 867 865 864 862 860 859 857 855 853 852 850 848 846 844 842 840 839 837 835 833 831 828 826 824 822 819 817 815 813 812 810 809 807 805 803 800 798 795 791 788 788 788 787 785 784 783 783 782 781 780 779 778 777 776 775 774 773 773 773 773 772
879 877 876 874 873 871 870 868 867 865 864 862 860 859 857 855 854 852 850 848 846 844 842 840 839 837 835 833 831 829 827 824 822 819 817 815 814 812 811 809 807 805 803 800 798 794 791 790 789 789 788 786 785 784 783 783 782 781 780 779 778 778 777 776 775 774 774 773 773
879 877 875 874 872 871 869 868 867 865 863 862 860 858 857 855 854 852 850 848 846 844 842 840 839 837 834 833 831 829 827 825 823 820 818 816 814 813 811 810 807 804 802 800 799 795 792 792 791 790 789 787 786 786 785 784 783 783 781 780 779 778 777 776 775 774 774 773 773
879 877 875 873 872 871 869 868 866 865 863 862 860 859 857 856 854 852 850 848 846 844 842 841 839 837 835 833 832 830 828 826 823 821 819 817 815 814 812 810 808 805 802 800 799 796 794 793 792 791 790 788 788 787 786 786 785 784 783 782 781 780 779 777 776 775 773 773 773
879 877 875 873 872 870 869 868 866 865 863 862 861 859 858 856 854 852 850 848 847 844 843 841 839 837 835 834 832 830 828 827 824 822 820 818 816 815 813 811 809 806 803 801 799 797 795 794 793 792 791 790 789 789 788 788 787 787 786 785 783 782 781 780 778 777 775 774 774
878 877 875 873 872 870 869 868 866 865 864 862 861 859 858 856 854 853 851 849 847 845 843 842 840 838 836 835 833 831 829 827 825 823 821 819 818 816 814 812 810 808 805 803 800 798 796 795 794 793 793 792 791 790 790 789 789 788 788 787 786 785 784 783 781 780 778 777 776
878 877 875 873 872 871 869 868 867 865 864 863 861 859 858 856 854 853 851 849 847 845 843 842 840 838 837 835 834 832 830 828 826 824 823 821 819 818 816 813 812 810 808 806 803 800 798 796 796 795 794 793 793 792 792 791 790 790 789 788 788 787 786 785 784 783 781 779 778
878 877 875 873 872 871 869 868 867 866 864 863 861 859 858 856 854 853 851 849 847 845 844 842 840 839 838 836 834 832 830 829 827 825 824 822 820 819 817 815 813 812 810 808 806 803 801 799 798 797 796 795 794 794 793 792 792 791 791 790 790 789 788 787 786 784 783 781 780
Wind_Speed
23 23 22 21 20 21 21 21 20 21 22 23 23 23 22 22 22 21 21 21 22 22 23 23 24 24 26 27 28 28 28 29 29 28 27 26 25 25 26 26 26 26 26 27 27 26 25 25 24 23 22 21 21 20 20 19 20 21 22 23 24 25 25 24 23 22 23 23 22
23 23 23 22 22 22 22 22 22 23 24 24 23 22 22 22 21 21 21 22 22 23 24 24 24 25 26 27 27 28 28 29 29 28 27 26 25 25 26 26 26 26 26 27 27 26 25 25 25 24 22 21 21 21 20 20 20 21 22 23 24 24 23 22 22 22 23 23 22
24 23 24 24 24 25 24 23 23 25 26 25 23 22 22 21 21 21 21 22 23 24 24 24 25 25 26 26 27 28 28 28 28 27 26 26 26 26 26 26 26 27 27 27 26 26 25 25 25 23 22 21 21 21 21 21 21 21 22 23 23 22 22 21 22 22 22 21 22
24 24 24 24 25 25 25 24 25 26 27 25 24 23 22 21 21 21 22 23 24 24 24 25 25 25 25 26 28 28 28 27 27 26 26 26 26 26 26 27 27 27 27 27 26 26 26 26 25 23 22 22 22 22 21 21 22 22 22 22 22 21 21 21 22 22 21 21 22
24 24 24 24 25 25 26 26 26 27 27 25 24 24 23 23 22 23 23 24 24 24 25 25 24 24 25 27 28 28 27 26 26 26 25 26 26 26 26 27 27 28 27 27 27 27 27 26 24 23 23 23 22 22 22 22 23 23 23 23 22 22 22 22 22 22 22 22 22
25 24 24 25 25 26 26 26 27 27 27 26 26 25 25 25 24 25 25 25 25 26 26 25 24 25 26 28 28 27 27 26 26 26 26 26 26 26 27 27 27 27 27 27 27 27 27 26 25 23 23 22 22 23 23 23 23 24 24 24 23 23 23 23 23 23 22 23 23
24 24 25 25 26 26 27 27 28 28 28 27 26 27 27 27 26 26 27 27 26 25 25 24 24 26 28 28 27 27 26 26 26 26 26 26 26 27 27 27 28 28 28 28 28 27 27 27 25 24 23 22 22 22 24 24 24 25 25 26 25 24 24 24 24 23 23 24 25
25 24 25 25 26 27 27 28 29 29 28 27 27 27 28 28 27 27 28 27 26 25 25 25 26 27 27 27 26 26 27 27 26 26 26 26 27 27 27 28 28 28 28 28 28 28 28 27 25 23 22 23 23 24 25 26 27 27 28 28 27 26 25 24 24 24 24 25 26
25 25 25 26 26 27 28 28 29 29 28 28 27 28 28 27 26 27 27 26 25 25 26 26 27 27 27 26 26 26 27 27 27 27 27 27 27 27 27 28 28 28 28 28 28 29 28 27 25 24 24 23 24 26 28 29 29 29 29 28 27 26 25 25 25 25 25 26 27
26 25 26 26 27 27 28 29 29 28 28 27 27 27 27 26 26 27 27 25 25 26 27 27 27 27 27 27 26 26 26 26 27 27 28 27 27 27 28 28 28 28 29 29 29 29 28 27 26 26 27 27 28 29 30 30 29 29 28 27 26 27 27 27 27 26 26 26 26
26 26 26 26 27 28 28 29 29 28 27 26 27 27 27 27 27 26 26 25 26 27 27 27 27 27 27 27 26 26 27 27 27 28 28 28 28 28 28 28 28 29 29 29 29 29 28 27 28 29 31 30 31 31 30 30 29 29 29 28 28 28 28 27 26 25 24 24 24
26 26 26 26 27 28 29 29 28 27 26 26 26 27 27 27 26 26 25 25 26 27 27 27 27 27 27 27 27 27 27 28 28 28 28 28 28 28 28 28 28 29 29 30 29 29 28 29 30 32 34 34 32 31 30 31 31 31 30 29 29 28 27 26 25 23 22 22 22
26 26 26 27 27 28 28 28 27 26 25 25 26 26 26 25 25 24 25 25 26 26 26 27 27 27 27 27 27 28 28 29 29 29 28 28 28 28 28 28 28 29 30 30 30 29 30 31 32 34 35 35 34 33 33 33 33 32 31 29 28 27 26 25 24 21 20 20 20
27 27 27 27 28 28 28 27 26 25 24 25 25 25 25 25 24 24 24 25 26 26 26 27 27 27 27 27 28 28 29 29 29 29 29 28 27 27 28 28 29 30 30 31 31 31 32 32 33 34 35 36 36 36 36 35 34 33 31 28 26 25 23 22 19 17 17 17 18
27 27 27 28 28 28 27 26 25 24 24 24 25 25 25 25 25 25 25 26 26 26 26 26 27 27 28 28 28 29 29 29 29 29 29 29 28 27 28 29 30 31 31 32 33 33 33 33 34 34 35 36 37 38 37 37 35 32 29 25 22 20 18 16 14 14 14 15 16
28 28 28 28 28 28 27 26 24 24 24 24 25 25 25 25 25 25 26 26 27 26 26 27 28 28 28 28 28 29 29 29 30 30 30 29 28 28 28 29 30 32 33 34 34 35 34 34 34 34 35 36 37 38 38 37 34 30 24 20 17 15 13 12 12 13 14 15 15
28 28 28 28 28 28 27 26 25 25 25 26 26 26 26 26 26 26 27 27 27 27 28 29 28 28 28 29 29 29 29 29 30 30 30 29 29 29 30 31 31 32 33 34 35 35 35 35 35 35 35 36 37 37 37 35 31 26 21 18 15 13 11 11 12 13 14 15 16
28 28 28 28 27 27 27 27 26 26 26 27 26 26 26 26 27 27 27 28 27 28 29 29 29 28 28 29 29 29 29 29 30 30 30 30 30 30 31 32 32 33 33 34 34 35 35 35 35 36 36 36 36 36 34 31 27 23 20 18 16 14 12 11 12 13 14 15 16
28 28 28 28 27 27 27 27 27 27 27 27 27 27 27 27 28 28 28 29 28 28 29 29 29 29 29 29 29 29 29 29 29 30 30 30 30 31 32 32 32 33 33 33 34 34 34 35 35 36 37 37 36 34 30 26 23 21 19 18 17 15 13 12 12 13 14 15 16
28 28 28 28 27 27 27 27 27 27 27 27 27 27 27 28 28 28 29 29 29 28 29 29 29 30 30 29 30 29 29 27 28 28 29 30 30 31 31 32 32 33 33 33 33 34 34 35 35 36 37 37 34 30 26 22 20 19 18 17 17 16 14 14 14 15 15 16 16
29 29 29 28 28 28 27 27 27 27 27 27 27 27 27 28 28 28 28 29 29 29 29 30 30 30 30 29 29 29 28 27 27 28 29 30 30 30 31 31 31 32 32 33 33 33 34 35 36 37 37 35 30 26 22 20 19 18 17 17 17 16 16 16 17 17 17 17 17
29 29 29 28 28 27 27 27 27 27 26 26 27 27 27 27 28 28 28 29 29 29 29 29 29 29 29 28 28 28 28 29 30 30 30 31 30 30 31 31 31 32 32 32 33 33 34 35 36 36 35 31 25 22 21 20 18 18 17 17 18 18 18 18 18 18 17 17 17
29 29 28 27 27 27 27 27 26 26 26 26 26 26 27 27 27 28 28 28 29 29 29 29 28 28 28 27 27 28 29 31 32 32 32 31 31 31 31 30 30 31 31 31 31 32 33 35 35 35 32 27 21 19 20 20 18 18 17 18 19 20 20 20 19 18 18 17 17
29 28 28 27 27 27 27 26 26 26 26 26 26 26 27 27 27 28 28 29 29 29 29 29 28 28 27 26 27 28 30 32 32 32 32 32 32 31 31 30 30 30 30 29 29 30 31 33 33 33 30 24 18 18 20 20 19 18 18 19 21 21 22 21 20 19 19 18 17
28 28 28 27 27 27 26 26 26 25 25 25 26 26 26 27 27 28 28 29 29 30 29 28 28 27 26 26 27 29 31 31 31 31 31 32 32 32 31 30 29 29 28 28 28 28 29 30 31 33 31 23 17 17 19 20 19 18 18 20 21 22 22 22 20 19 19 19 18
28 28 28 28 27 27 26 26 25 25 25 25 26 26 27 27 27 28 29 29 29 30 29 28 27 26 25 26 28 30 31 31 31 31 30 31 31 31 31 29 29 28 28 28 28 28 28 30 31 33 32 23 16 16 19 19 19 19 20 20 21 22 22 21 20 19 20 20 20
28 28 28 27 27 26 26 26 25 25 25 25 26 26 27 28 28 28 29 29 29 29 28 27 26 26 26 27 28 30 31 31 31 30 30 30 30 30 30 29 29 29 29 28 27 27 28 30 32 35 32 24 17 18 19 20 19 19 20 21 21 22 22 20 17 17 19 20 21
28 28 28 27 26 26 26 26 25 25 26 26 26 26 27 28 28 28 29 29 29 28 27 26 26 26 27 28 29 30 30 31 30 29 29 29 30 29 29 29 30 30 29 27 27 27 28 30 34 35 31 23 20 20 21 20 19 19 20 21 22 22 21 18 16 17 18 19 22
28 27 27 27 26 26 26 26 26 26 26 26 26 27 28 28 29 29 29 29 28 27 26 26 27 28 29 30 30 30 30 30 29 29 29 30 30 29 29 29 30 30 30 28 27 28 29 32 35 33 27 22 21 22 22 21 20 20 21 22 23 23 20 17 17 17 18 20 23
28 28 27 26 26 26 26 26 26 26 26 26 27 28 28 28 29 29 29 28 27 27 27 27 29 30 31 31 31 31 30 30 29 29 29 29 29 29 29 29 30 31 30 29 28 29 32 34 32 27 22 21 22 22 23 22 21 21 22 23 25 25 22 19 19 20 21 23 24
28 27 27 26 26 27 27 27 27 27 27 27 28 28 28 28 29 29 28 28 27 27 28 29 30 31 31 32 32 32 31 30 29 29 29 29 29 29 29 30 30 30 30 29 29 31 34 34 27 21 21 21 22 23 23 22 22 22 24 26 28 28 25 21 20 21 23 25 25
27 27 27 27 27 27 27 27 27 27 27 28 28 28 28 28 28 28 28 28 27 28 29 30 31 32 32 32 32 32 31 30 29 29 29 29 29 29 29 29 30 30 29 29 30 33 34 29 22 21 21 21 22 23 24 23 23 24 26 28 30 30 27 24 22 22 23 24 24
27 27 27 27 27 27 27 27 27 27 27 28 28 28 28 28 28 28 28 28 28 28 29 30 31 31 31 31 31 31 31 30 29 29 29 29 29 28 28 28 29 29 28 29 32 34 32 24 22 21 21 21 22 23 24 24 24 25 27 29 30 30 29 27 24 22 21 22 23
27 27 27 27 27 27 27 27 27 27 27 28 28 28 28 28 28 28 28 28 28 29 30 31 31 31 31 31 30 30 30 29 30 30 30 29 28 28 28 28 28 28 29 30 33 33 29 23 23 22 22 21 23 23 24 24 24 26 27 28 29 29 28 28 27 23 20 19 21
27 27 27 27 27 27 27 26 26 26 27 27 28 28 28 28 27 28 28 28 28 30 31 31 31 32 32 31 30 29 28 29 30 30 30 28 28 27 27 28 29 29 30 30 34 32 28 23 23 24 23 23 24 24 23 23 24 26 27 28 28 28 28 28 29 27 23 21 22
27 27 27 27 27 27 27 26 26 26 26 27 27 28 28 27 27 28 28 28 29 30 31 32 32 32 32 31 29 28 28 28 29 29 29 28 27 27 27 28 30 31 31 31 37 35 29 24 24 25 26 26 26 24 23 22 23 24 26 27 28 28 29 29 30 30 29 26 25
27 27 27 27 27 27 27 27 26 26 26 26 27 27 27 27 27 28 28 28 29 30 31 31 31 31 30 29 27 27 27 27 27 28 28 28 27 27 27 28 31 33 33 34 38 37 31 26 25 27 28 29 27 25 23 22 22 23 24 25 27 28 29 29 30 32 32 30 28
27 27 27 27 27 27 27 27 26 25 25 26 26 26 26 26 27 27 28 28 28 29 29 29 29 29 28 27 26 26 27 27 27 27 28 28 27 26 27 28 31 33 35 36 39 39 35 30 27 27 29 30 28 25 23 21 21 21 22 23 24 26 28 29 29 31 32 32 29
28 28 28 27 27 27 27 26 25 25 25 25 25 25 26 26 26 27 28 28 28 28 28 27 27 27 26 25 25 26 27 27 27 27 27 27 27 26 26 28 31 33 34 36 37 38 37 34 29 27 28 30 28 26 23 22 21 21 21 21 22 23 25 26 27 28 30 31 29
28 28 28 27 27 26 25 25 25 24 24 24 25 25 25 26 26 27 28 28 29 28 27 26 25 25 25 24 24 26 27 27 27 27 26 26 26 26 27 29 30 32 34 34 35 36 36 35 31 28 28 29 28 26 24 23 22 22 21 21 20 20 21 23 24 25 28 29 28
28 28 28 27 26 25 24 24 24 25 25 24 24 24 25 26 27 28 28 29 29 28 26 24 24 24 24 24 24 25 26 26 26 26 26 26 26 27 28 29 29 31 32 32 32 33 34 35 33 29 27 27 27 26 25 24 23 22 22 21 20 20 20 21 22 24 26 27 28
Wind_Direction
345 344 344 343 342 340 339 337 337 336 335 334 332 331 330 328 326 325 325 325 325 325 325 325 325 324 325 326 328 329 329 329 330 330 329 329 328 328 327 327 327 326 326 325 324 324 323 322 320 318 315 313 311 309 309 308 307 307 306 305 304 303 302 301 303 306 308 308 306
344 343 342 342 340 340 339 337 336 335 335 334 333 331 330 328 326 325 324 324 324 324 324 324 324 324 325 326 327 328 328 329 329 329 329 328 328 328 327 327 327 326 326 325 325 323 321 321 319 317 314 312 310 309 307 306 306 305 305 305 304 304 304 303 305 306 307 305 304
343 342 342 341 340 340 339 337 335 335 334 334 333 331 330 329 327 325 324 323 323 323 323 323 324 324 325 326 327 328 328 329 329 329 329 328 327 327 327 327 326 326 326 325 324 323 321 320 318 315 313 310 309 307 306 306 306 305 304 304 304 304 304 304 305 305 304 303 303
343 342 341 340 340 339 338 336 335 334 334 333 332 331 330 329 328 326 324 324 324 324 324 324 324 324 325 326 327 328 328 329 329 329 328 327 327 327 327 326 326 326 325 325 324 323 322 320 317 315 311 309 307 305 303 304 305 304 302 303 303 302 302 302 303 303 302 301 301
342 341 340 339 338 338 337 336 335 334 333 332 332 331 331 330 329 327 326 325 325 324 324 324 324 325 325 326 327 328 328 329 330 329 328 327 327 326 326 326 326 325 325 325 324 323 322 321 317 314 311 308 306 304 303 302 302 301 300 301 300 300 300 300 300 300 300 300 300
341 340 339 338 337 337 337 336 335 334 333 332 331 331 330 330 329 328 327 326 324 324 325 325 325 325 326 326 327 328 329 329 330 329 329 328 327 326 326 326 325 324 324 324 324 324 322 321 317 313 310 308 306 304 302 302 301 299 298 299 298 297 297 298 298 297 297 298 298
339 339 338 337 337 337 337 336 335 334 333 332 331 331 331 330 329 328 327 326 325 325 326 326 325 325 326 327 328 328 328 329 329 329 329 328 327 326 326 325 325 325 324 324 323 323 322 320 317 314 312 309 307 305 304 303 301 299 297 297 296 296 295 295 295 295 296 296 297
339 339 338 338 338 338 337 337 336 334 333 332 331 330 330 330 328 328 327 327 326 326 325 324 325 326 327 327 327 327 328 328 328 329 329 328 327 326 326 325 324 324 325 324 323 322 321 319 316 313 311 310 307 306 305 304 302 299 297 295 295 295 294 293 293 294 294 295 296
340 340 339 338 338 338 337 336 335 334 333 332 331 331 330 329 328 328 327 327 325 325 324 324 325 326 326 327 326 327 327 328 328 329 329 328 327 326 326 325 324 324 324 324 323 322 320 318 315 313 312 309 307 306 305 304 302 300 298 296 295 294 294 293 292 292 293 293 294
341 341 340 339 338 337 336 335 335 334 333 332 331 331 330 329 328 328 328 326 324 325 325 325 325 326 326 326 326 326 326 327 327 327 327 327 327 326 326 325 324 323 323 323 323 322 320 318 316 314 312 310 307 306 306 305 303 301 299 297 295 295 294 293 292 292 292 292 293
342 342 340 339 337 336 335 335 335 334 334 333 332 332 331 330 330 329 328 326 326 326 326 326 326 326 325 325 325 326 325 325 325 325 326 326 326 326 326 325 324 323 323 323 322 322 320 318 315 314 312 310 309 308 307 307 305 302 300 298 296 295 294 293 293 292 292 293 294
343 343 341 339 337 336 335 335 335 335 334 333 333 333 332 332 331 330 329 329 328 328 327 327 326 326 325 325 325 325 325 324 324 324 324 325 325 326 326 325 325 324 323 323 322 321 319 317 315 314 313 312 311 310 309 308 306 304 301 299 297 295 293 293 294 294 294 296 297
344 343 342 340 339 337 337 336 336 335 334 334 334 333 333 332 331 331 330 330 329 328 327 328 327 327 325 324 324 324 324 323 323 322 322 323 324 325 326 326 325 325 324 322 321 319 318 316 315 314 313 313 312 311 311 309 308 305 302 300 298 296 294 294 296 297 298 300 299
345 343 342 341 339 338 338 337 336 335 334 334 334 333 333 332 332 331 331 331 329 329 328 328 328 328 326 325 325 324 324 323 322 321 321 321 322 324 325 326 326 325 324 322 320 318 317 316 315 314 313 313 313 313 312 311 309 306 303 301 299 298 298 298 299 301 303 303 299
344 343 342 341 340 339 338 337 336 335 334 334 333 333 332 332 332 332 331 330 330 329 329 328 328 328 328 327 327 326 325 324 322 321 320 319 320 322 325 325 325 325 323 322 320 319 318 317 316 315 314 314 313 313 313 313 311 310 307 306 305 303 301 301 304 308 307 303 301
341 341 341 340 339 338 337 337 336 335 334 333 332 332 332 331 331 331 331 331 330 329 329 330 330 329 329 329 329 328 327 325 324 321 319 318 320 323 325 325 325 324 323 322 321 320 319 318 317 315 314 313 313 314 315 315 315 315 316 317 315 310 307 308 312 313 309 305 306
339 339 338 338 337 336 336 336 335 334 333 332 332 331 331 331 331 331 332 332 331 330 331 332 331 331 330 330 330 329 328 326 325 322 321 321 323 325 326 326 326 325 324 323 322 320 319 319 318 316 314 313 314 315 316 318 320 324 330 331 326 319 317 320 321 318 313 311 313
337 337 336 336 335 335 335 335 335 333 332 332 331 331 331 331 332 333 333 334 333 332 332 332 332 332 331 330 330 330 329 328 327 326 326 326 328 328 328 327 327 326 325 324 322 320 319 318 319 318 316 315 315 317 319 321 327 337 345 343 337 333 333 336 333 327 323 320 319
335 335 335 334 333 333 334 335 334 332 332 331 331 331 332 333 333 334 335 336 336 335 334 333 333 333 332 331 331 332 332 331 330 330 330 330 330 329 329 328 328 327 326 324 322 321 320 320 320 319 317 316 316 318 320 325 335 347 355 354 351 350 351 350 345 339 333 328 325
334 334 333 333 332 333 334 334 333 333 333 333 333 334 335 336 336 337 337 338 338 337 336 335 334 334 333 333 333 334 334 333 332 331 330 330 329 329 329 329 328 327 326 325 323 322 322 322 321 319 318 317 318 320 324 331 343 355 2 3 2 0 357 353 347 341 336 332 330
335 335 334 334 334 334 335 334 334 334 334 335 336 337 338 339 339 339 339 340 340 339 337 336 335 334 334 334 334 334 334 333 331 330 329 329 329 329 329 329 328 328 327 326 325 324 324 323 321 318 317 318 321 326 333 339 350 360 5 5 1 357 352 346 343 339 337 336 336
337 337 337 337 338 338 338 337 337 337 337 338 339 340 341 341 342 341 341 341 340 339 338 337 335 335 335 334 334 334 333 333 331 330 330 330 330 330 331 330 329 329 328 327 326 326 325 323 320 318 318 320 328 337 343 348 357 4 6 2 356 351 347 345 344 343 344 345 345
340 341 342 342 342 342 342 341 341 341 341 341 342 343 343 344 343 343 343 342 341 339 339 338 337 336 336 335 334 334 333 333 332 331 331 331 331 331 332 331 330 329 327 326 326 325 323 320 318 317 319 325 338 349 353 358 4 7 5 0 355 352 350 349 351 353 355 355 357
346 347 347 347 347 346 345 344 343 343 344 344 345 345 345 345 344 344 343 342 341 340 340 339 339 338 337 336 335 334 333 332 331 331 332 333 333 333 333 332 330 329 327 326 325 323 320 317 315 318 323 332 348 359 3 6 8 7 3 359 355 353 352 352 356 0 4 6 11
350 351 351 350 350 349 348 346 346 345 345 346 346 346 346 345 344 343 342 341 341 341 341 341 341 340 338 336 336 335 334 333 331 331 331 333 334 335 334 332 330 328 326 325 324 322 320 317 316 321 329 339 357 11 12 13 11 6 0 356 354 351 349 349 356 6 15 22 28
353 353 353 352 352 351 349 348 348 347 347 347 347 347 346 345 344 343 342 341 341 340 341 341 341 340 338 336 335 335 334 333 332 332 332 332 333 334 333 331 329 327 326 325 325 325 323 321 320 326 336 350 10 21 18 15 11 5 360 356 352 349 346 346 356 13 29 38 40
355 354 353 353 352 352 350 349 349 348 348 348 346 346 345 345 343 343 342 340 340 341 341 340 340 339 338 335 334 334 334 333 333 332 332 332 333 333 332 330 329 328 328 327 326 326 325 324 323 329 340 360 22 29 23 18 12 7 2 358 354 350 347 348 1 23 38 43 42
354 354 353 353 352 351 351 350 350 349 348 348 346 345 344 345 344 343 343 342 342 342 341 340 339 339 338 336 335 334 333 333 333 333 332 333 332 332 331 330 330 329 329 328 328 327 326 326 325 331 343 7 29 33 27 22 16 10 6 2 358 354 352 359 20 36 43 43 42
355 354 353 353 352 351 351 350 350 349 348 347 346 345 345 345 345 344 343 343 342 342 340 339 339 338 337 336 335 334 333 333 333 332 332 332 332 332 332 332 332 332 331 330 328 328 327 327 327 335 353 22 35 35 29 25 20 15 11 8 4 1 6 23 42 48 45 43 43
355 354 353 352 352 351 351 350 350 349 349 348 347 347 346 345 345 345 343 341 341 340 339 338 338 337 337 337 336 335 333 332 333 332 332 331 331 332 334 334 334 334 334 332 331 330 330 329 332 345 10 33 36 34 31 28 25 21 17 14 12 14 24 43 51 50 46 45 45
355 354 353 352 352 352 351 351 351 350 349 348 349 348 347 345 346 345 344 342 341 340 340 339 339 338 338 338 338 336 334 333 333 332 332 331 331 332 335 335 336 336 336 334 333 333 332 335 344 7 29 36 36 35 33 31 29 26 23 21 21 24 32 44 47 46 46 46 46
354 353 353 352 352 352 351 351 351 351 350 350 349 348 347 347 346 346 345 343 341 341 340 340 340 340 340 339 339 337 335 334 334 333 332 331 332 334 336 337 338 338 338 336 334 334 338 349 10 29 35 36 36 36 35 33 32 30 28 27 27 29 32 37 41 44 45 46 45
353 352 352 352 351 351 350 350 350 350 350 350 349 349 348 347 347 346 345 343 342 340 339 339 340 340 340 339 338 338 337 336 336 335 334 334 334 336 338 339 340 340 339 337 334 339 351 15 33 38 34 35 36 37 36 34 33 32 31 30 29 29 30 33 37 43 46 47 46
352 352 351 350 350 350 349 349 349 349 349 349 349 349 348 347 346 345 344 343 341 339 339 339 340 340 340 340 340 340 340 339 339 339 339 339 338 339 339 341 342 341 339 337 338 351 11 38 42 38 34 35 37 37 36 34 33 32 31 30 28 27 26 28 32 37 44 49 49
351 350 350 349 348 348 347 347 347 348 348 349 349 348 347 346 345 344 343 341 340 338 338 339 340 341 342 343 344 344 343 343 343 343 343 343 343 343 344 345 345 342 340 341 349 7 30 49 44 38 36 37 38 37 35 34 32 31 30 29 26 24 23 23 24 27 34 46 51
350 348 346 345 345 345 345 345 345 346 347 347 347 347 346 345 344 343 342 340 339 338 338 339 340 342 344 345 346 347 347 347 347 347 347 348 348 348 349 349 347 345 343 348 3 20 40 50 44 40 39 39 38 37 35 34 31 30 29 27 25 23 22 22 21 22 25 34 44
349 347 344 343 342 343 343 343 344 345 346 346 346 346 345 344 344 343 342 340 338 337 337 339 341 343 344 345 347 349 350 351 350 350 351 352 353 353 353 352 352 350 349 354 8 22 37 47 45 42 40 39 38 36 34 33 31 30 27 26 24 23 22 22 23 23 23 25 32
348 345 344 342 342 342 343 344 345 346 347 347 346 346 345 345 344 342 341 340 338 337 337 340 341 343 346 348 349 351 354 355 355 355 355 356 357 357 356 356 357 356 355 358 6 17 29 40 44 43 41 39 38 36 34 32 31 29 27 25 24 23 23 23 23 24 24 23 24
346 345 343 342 342 343 344 346 347 348 348 348 347 346 346 345 344 343 341 340 339 338 338 340 342 346 349 351 352 354 357 359 1 1 1 359 0 1 1 0 2 2 1 2 6 13 22 31 40 43 41 39 38 37 35 33 30 29 27 25 23 22 22 22 22 22 23 23 22
346 345 344 344 344 345 347 349 350 351 350 349 348 348 347 346 344 343 342 342 341 341 341 342 346 350 353 354 355 358 1 3 5 6 6 4 4 4 5 5 5 6 6 7 8 12 17 24 33 39 40 39 39 38 36 34 31 29 27 25 22 20 19 19 19 19 20 22 22
347 346 345 346 347 349 351 352 352 352 352 351 349 348 347 345 344 344 344 344 344 344 344 346 349 353 356 357 359 2 5 7 8 9 10 9 9 10 10 9 8 9 10 11 12 14 17 21 28 34 38 38 39 39 38 36 33 29 26 23 21 19 18 17 17 18 19 19 20